TimePDT,TemperatureF,Dew PointF,Humidity,Sea Level PressureIn,VisibilityMPH,Wind Direction,Wind SpeedMPH,Gust SpeedMPH,PrecipitationIn,Events,Conditions,WindDirDegrees,DateUTC
12:15 AM,53.6,48.2,82,30.12,10.0,Calm,Calm,-,N/A,,Clear,0,2013-08-21 07:15:00
12:35 AM,53.6,48.2,82,30.12,10.0,Calm,Calm,-,N/A,,Clear,0,2013-08-21 07:35:00
12:55 AM,53.6,48.2,82,30.12,10.0,Calm,Calm,-,N/A,,Clear,0,2013-08-21 07:55:00
1:15 AM,51.8,48.2,88,30.12,10.0,Calm,Calm,-,N/A,,Clear,0,2013-08-21 08:15:00
1:35 AM,51.8,48.2,88,30.13,10.0,Calm,Calm,-,N/A,,Clear,0,2013-08-21 08:35:00
1:55 AM,51.8,48.2,88,30.12,10.0,Calm,Calm,-,N/A,,Clear,0,2013-08-21 08:55:00
2:15 AM,50.0,46.4,87,30.12,10.0,Calm,Calm,-,N/A,,Clear,0,2013-08-21 09:15:00
2:35 AM,50.0,46.4,87,30.12,10.0,Calm,Calm,-,N/A,,Clear,0,2013-08-21 09:35:00
2:55 AM,50.0,46.4,87,30.12,10.0,Calm,Calm,-,N/A,,Clear,0,2013-08-21 09:55:00
3:15 AM,48.2,46.4,93,30.11,10.0,Calm,Calm,-,N/A,,Clear,0,2013-08-21 10:15:00
3:35 AM,48.2,46.4,93,30.11,10.0,Calm,Calm,-,N/A,,Clear,0,2013-08-21 10:35:00
3:55 AM,48.2,46.4,93,30.11,8.0,Calm,Calm,-,N/A,,Clear,0,2013-08-21 10:55:00
4:15 AM,48.2,44.6,87,30.11,10.0,Calm,Calm,-,N/A,,Clear,0,2013-08-21 11:15:00
4:35 AM,48.2,46.4,93,30.10,10.0,Calm,Calm,-,N/A,,Clear,0,2013-08-21 11:35:00
4:55 AM,46.4,44.6,93,30.10,8.0,Calm,Calm,-,N/A,,Clear,0,2013-08-21 11:55:00
5:15 AM,46.4,46.4,100,30.11,1.5,Calm,Calm,-,N/A,,Clear,0,2013-08-21 12:15:00
5:35 AM,46.4,44.6,93,30.10,1.0,Calm,Calm,-,N/A,,Clear,0,2013-08-21 12:35:00
5:55 AM,44.6,42.8,93,30.10,9.0,Calm,Calm,-,N/A,,Clear,0,2013-08-21 12:55:00
6:15 AM,44.6,42.8,93,30.11,8.0,Calm,Calm,-,N/A,,Clear,0,2013-08-21 13:15:00
6:35 AM,46.4,44.6,93,30.11,7.0,Calm,Calm,-,N/A,,Clear,0,2013-08-21 13:35:00
6:55 AM,46.4,44.6,93,30.11,10.0,Calm,Calm,-,N/A,,Clear,0,2013-08-21 13:55:00
7:15 AM,48.2,46.4,93,30.11,10.0,Calm,Calm,-,N/A,,Clear,0,2013-08-21 14:15:00
7:35 AM,51.8,48.2,88,30.12,10.0,Calm,Calm,-,N/A,,Clear,0,2013-08-21 14:35:00
7:55 AM,53.6,48.2,82,30.11,10.0,Calm,Calm,-,N/A,,Clear,0,2013-08-21 14:55:00
8:15 AM,53.6,48.2,82,30.11,10.0,Calm,Calm,-,N/A,,Clear,0,2013-08-21 15:15:00
8:35 AM,55.4,50.0,82,30.11,10.0,Calm,Calm,-,N/A,,Clear,0,2013-08-21 15:35:00
8:55 AM,57.2,51.8,82,30.11,10.0,Calm,Calm,-,N/A,,Clear,0,2013-08-21 15:55:00
9:15 AM,60.8,51.8,72,30.11,10.0,Calm,Calm,-,N/A,,Clear,0,2013-08-21 16:15:00
9:35 AM,62.6,51.8,68,30.11,10.0,Calm,Calm,-,N/A,,Clear,0,2013-08-21 16:35:00
9:55 AM,64.4,51.8,64,30.10,10.0,Calm,Calm,-,N/A,,Clear,0,2013-08-21 16:55:00
10:15 AM,64.4,51.8,64,30.10,10.0,Calm,Calm,-,N/A,,Clear,0,2013-08-21 17:15:00
10:35 AM,66.2,51.8,60,30.10,10.0,Calm,Calm,-,N/A,,Clear,0,2013-08-21 17:35:00
10:55 AM,66.2,51.8,60,30.09,10.0,Calm,Calm,-,N/A,,Clear,0,2013-08-21 17:55:00
11:15 AM,69.8,51.8,53,30.09,10.0,NW,5.8,-,N/A,,Clear,320,2013-08-21 18:15:00
11:35 AM,69.8,51.8,53,30.09,10.0,Calm,Calm,-,N/A,,Clear,0,2013-08-21 18:35:00
11:55 AM,71.6,53.6,53,30.08,10.0,NNW,5.8,-,N/A,,Clear,340,2013-08-21 18:55:00
12:15 PM,73.4,55.4,53,30.07,10.0,West,5.8,-,N/A,,Clear,260,2013-08-21 19:15:00
12:35 PM,73.4,55.4,53,30.06,10.0,NW,10.4,-,N/A,,Clear,310,2013-08-21 19:35:00
12:55 PM,73.4,55.4,53,30.06,10.0,West,9.2,-,N/A,,Clear,280,2013-08-21 19:55:00
1:15 PM,75.2,53.6,47,30.05,10.0,WNW,6.9,-,N/A,,Clear,290,2013-08-21 20:15:00
1:35 PM,77.0,55.4,47,30.04,10.0,WNW,12.7,17.3,N/A,,Clear,290,2013-08-21 20:35:00
1:55 PM,77.0,55.4,47,30.04,10.0,WNW,10.4,17.3,N/A,,Clear,290,2013-08-21 20:55:00
2:15 PM,78.8,55.4,44,30.04,10.0,WNW,8.1,16.1,N/A,,Clear,290,2013-08-21 21:15:00
2:35 PM,78.8,53.6,42,30.03,10.0,NW,10.4,-,N/A,,Clear,320,2013-08-21 21:35:00
2:55 PM,78.8,53.6,42,30.02,10.0,WNW,13.8,19.6,N/A,,Clear,300,2013-08-21 21:55:00
3:15 PM,78.8,53.6,42,30.01,10.0,NW,11.5,17.3,N/A,,Clear,310,2013-08-21 22:15:00
3:35 PM,78.8,53.6,42,30.00,10.0,WNW,11.5,-,N/A,,Clear,300,2013-08-21 22:35:00
3:55 PM,78.8,53.6,42,30.00,10.0,NW,9.2,-,N/A,,Clear,310,2013-08-21 22:55:00
4:15 PM,78.8,53.6,42,29.99,10.0,NW,11.5,-,N/A,,Clear,310,2013-08-21 23:15:00
4:35 PM,78.8,53.6,42,29.98,10.0,NW,11.5,16.1,N/A,,Clear,310,2013-08-21 23:35:00
4:55 PM,78.8,53.6,42,29.98,10.0,WNW,12.7,18.4,N/A,,Clear,290,2013-08-21 23:55:00
5:15 PM,78.8,53.6,42,29.98,10.0,NW,12.7,-,N/A,,Clear,310,2013-08-22 00:15:00
5:35 PM,78.8,51.8,39,29.97,10.0,WNW,15.0,-,N/A,,Clear,300,2013-08-22 00:35:00
5:55 PM,77.0,51.8,41,29.97,10.0,NW,11.5,-,N/A,,Clear,310,2013-08-22 00:55:00
6:15 PM,77.0,51.8,41,29.96,10.0,NW,10.4,-,N/A,,Clear,310,2013-08-22 01:15:00
6:35 PM,75.2,51.8,44,29.96,10.0,WNW,10.4,-,N/A,,Clear,300,2013-08-22 01:35:00
6:55 PM,75.2,48.2,38,29.96,10.0,WNW,12.7,-,N/A,,Clear,300,2013-08-22 01:55:00
7:15 PM,73.4,48.2,41,29.96,10.0,NW,10.4,-,N/A,,Clear,310,2013-08-22 02:15:00